�������l�o���
Date,Time,MP-1(��Sv/h),MP-2(��Sv/h),MP-3(��Sv/h),MP-4(��Sv/h),MP-5(��Sv/h),MP-6(��Sv/h),MP-7(��Sv/h),MP-8(��Sv/h),����,����(m/s),���J
2018/01/08,00:00,0.901,1.504,0.943,1.783,1.203,0.494,0.881,0.847,�k��,2.2,��
2018/01/08,00:10,0.900,1.503,0.942,1.782,1.203,0.493,0.881,0.848,�k�k��,1.7,��
2018/01/08,00:20,0.899,1.504,0.942,1.783,1.203,0.492,0.881,0.845,�k��,2.6,��
2018/01/08,00:30,0.901,1.504,0.943,1.780,1.202,0.493,0.881,0.845,���k��,2.5,��
2018/01/08,00:40,0.901,1.505,0.943,1.785,1.201,0.492,0.882,0.846,�k��,3.0,��
2018/01/08,00:50,0.900,1.505,0.945,1.782,1.205,0.492,0.879,0.846,���k��,4.2,��
2018/01/08,01:00,0.901,1.503,0.943,1.786,1.202,0.491,0.882,0.846,�k��,4.0,��
2018/01/08,01:10,0.901,1.504,0.942,1.784,1.201,0.493,0.881,0.844,�k��,4.0,��
2018/01/08,01:20,0.900,1.506,0.942,1.784,1.200,0.494,0.879,0.846,�k��,3.1,��
2018/01/08,01:30,0.900,1.505,0.942,1.783,1.202,0.490,0.879,0.846,�k��,2.8,��
2018/01/08,01:40,0.899,1.503,0.943,1.785,1.205,0.493,0.879,0.845,�k��,2.8,��
2018/01/08,01:50,0.902,1.504,0.943,1.782,1.201,0.492,0.880,0.843,�k��,2.3,��
2018/01/08,02:00,0.900,1.502,0.943,1.783,1.205,0.493,0.881,0.845,���k��,1.7,��
2018/01/08,02:10,0.900,1.505,0.943,1.784,1.201,0.492,0.882,0.846,���쐼,1.7,��
2018/01/08,02:20,0.898,1.503,0.942,1.785,1.202,0.490,0.882,0.846,��쐼,2.0,��
2018/01/08,02:30,0.898,1.502,0.942,1.783,1.205,0.493,0.880,0.845,��쐼,2.2,��
2018/01/08,02:40,0.900,1.506,0.943,1.781,1.201,0.492,0.881,0.845,��,2.6,��
2018/01/08,02:50,0.901,1.501,0.942,1.786,1.202,0.492,0.880,0.846,��,2.2,��
2018/01/08,03:00,0.900,1.507,0.941,1.784,1.201,0.493,0.880,0.845,��쐼,3.0,��
2018/01/08,03:10,0.898,1.509,0.942,1.782,1.204,0.492,0.882,0.846,��쐼,3.8,��
2018/01/08,03:20,0.901,1.503,0.945,1.785,1.201,0.492,0.882,0.847,��,4.1,��
2018/01/08,03:30,0.901,1.506,0.941,1.784,1.202,0.492,0.882,0.847,��,3.7,��
2018/01/08,03:40,0.902,1.504,0.943,1.781,1.204,0.493,0.881,0.846,��,4.0,��
2018/01/08,03:50,0.900,1.504,0.943,1.782,1.205,0.492,0.881,0.847,��,4.1,��
2018/01/08,04:00,0.902,1.503,0.943,1.787,1.200,0.491,0.880,0.845,��,4.5,��
2018/01/08,04:10,0.900,1.505,0.941,1.785,1.203,0.492,0.879,0.844,��,3.9,��
2018/01/08,04:20,0.901,1.505,0.943,1.785,1.202,0.493,0.881,0.846,��,4.6,��
2018/01/08,04:30,0.899,1.503,0.943,1.784,1.203,0.495,0.878,0.844,��,3.4,��
2018/01/08,04:40,0.901,1.502,0.942,1.782,1.200,0.492,0.880,0.847,��,3.5,��
2018/01/08,04:50,0.899,1.503,0.941,1.782,1.204,0.493,0.882,0.845,��쓌,2.8,��
2018/01/08,05:00,0.903,1.502,0.941,1.785,1.203,0.493,0.880,0.845,��,2.8,��
2018/01/08,05:10,0.900,1.501,0.943,1.785,1.204,0.494,0.880,0.846,��,4.5,��
2018/01/08,05:20,0.900,1.502,0.943,1.780,1.200,0.493,0.879,0.846,��쐼,4.9,��
2018/01/08,05:30,0.901,1.503,0.941,1.782,1.202,0.491,0.879,0.844,��,6.0,��
2018/01/08,05:40,0.899,1.505,0.944,1.779,1.204,0.493,0.881,0.845,��쐼,5.7,��
2018/01/08,05:50,0.900,1.502,0.943,1.783,1.201,0.493,0.880,0.847,��,6.3,��
2018/01/08,06:00,0.900,1.503,0.943,1.782,1.204,0.493,0.880,0.847,��,6.6,��
2018/01/08,06:10,0.901,1.502,0.941,1.780,1.200,0.494,0.879,0.844,��,7.4,��
2018/01/08,06:20,0.902,1.504,0.943,1.778,1.199,0.492,0.880,0.846,��,7.1,��
2018/01/08,06:30,0.899,1.504,0.943,1.779,1.201,0.494,0.881,0.845,��,7.8,��
2018/01/08,06:40,0.900,1.505,0.943,1.781,1.204,0.492,0.882,0.845,��,7.1,��
2018/01/08,06:50,0.899,1.503,0.943,1.781,1.201,0.492,0.882,0.845,��,7.2,��
2018/01/08,07:00,0.900,1.505,0.941,1.782,1.201,0.493,0.880,0.845,��,6.0,��
2018/01/08,07:10,0.901,1.503,0.942,1.782,1.202,0.492,0.881,0.847,��,5.1,��
2018/01/08,07:20,0.903,1.502,0.942,1.782,1.203,0.493,0.881,0.847,��,5.7,��
2018/01/08,07:30,0.901,1.504,0.942,1.784,1.199,0.493,0.880,0.846,��,6.3,��
2018/01/08,07:40,0.902,1.503,0.943,1.782,1.201,0.493,0.881,0.847,��,6.1,��
2018/01/08,07:50,0.901,1.505,0.944,1.784,1.200,0.493,0.879,0.847,��,6.5,��
2018/01/08,08:00,0.903,1.504,0.943,1.783,1.201,0.492,0.882,0.847,��,6.1,��
2018/01/08,08:10,0.900,1.505,0.945,1.782,1.203,0.491,0.880,0.846,��,6.6,��
2018/01/08,08:20,0.903,1.502,0.942,1.784,1.201,0.492,0.881,0.845,��,6.4,��
2018/01/08,08:30,0.902,1.504,0.942,1.784,1.201,0.493,0.881,0.845,��,7.3,��
2018/01/08,08:40,0.903,1.505,0.947,1.783,1.201,0.494,0.881,0.846,��,8.4,��
2018/01/08,08:50,0.901,1.504,0.944,1.788,1.203,0.492,0.883,0.846,��,7.8,��
2018/01/08,09:00,0.902,1.508,0.945,1.785,1.203,0.493,0.883,0.849,��,7.8,��
2018/01/08,09:10,0.904,1.505,0.945,1.787,1.203,0.493,0.883,0.848,��,7.6,��
2018/01/08,09:20,0.903,1.505,0.946,1.786,1.204,0.493,0.885,0.848,��,8.4,��
2018/01/08,09:30,0.903,1.506,0.945,1.781,1.203,0.494,0.884,0.850,��,8.1,��
2018/01/08,09:40,0.905,1.506,0.946,1.785,1.205,0.494,0.885,0.849,��,7.7,��
2018/01/08,09:50,0.904,1.509,0.948,1.785,1.205,0.495,0.885,0.846,��,7.4,��
2018/01/08,10:00,0.906,1.507,0.944,1.786,1.203,0.495,0.885,0.849,��쓌,6.6,��
2018/01/08,10:10,0.905,1.508,0.948,1.788,1.203,0.494,0.884,0.847,��,6.1,��
2018/01/08,10:20,0.903,1.505,0.947,1.785,1.203,0.496,0.884,0.846,��쓌,5.8,��
2018/01/08,10:30,0.908,1.510,0.946,1.787,1.206,0.494,0.885,0.848,��,4.5,��
2018/01/08,10:40,0.905,1.505,0.947,1.785,1.207,0.496,0.884,0.849,��,6.3,��
2018/01/08,10:50,0.907,1.509,0.948,1.790,1.205,0.494,0.882,0.848,��,7.6,��
2018/01/08,11:00,0.908,1.507,0.947,1.789,1.207,0.495,0.884,0.847,��쓌,8.6,��
2018/01/08,11:10,0.907,1.506,0.949,1.786,1.207,0.497,0.885,0.849,��쓌,8.9,��
2018/01/08,11:20,0.906,1.506,0.949,1.786,1.206,0.497,0.884,0.849,��쓌,8.7,��
2018/01/08,11:30,0.905,1.507,0.946,1.786,1.205,0.495,0.885,0.848,��쓌,8.1,��
2018/01/08,11:40,0.907,1.510,0.950,1.790,1.206,0.495,0.885,0.850,��쓌,7.5,��
2018/01/08,11:50,0.908,1.507,0.947,1.788,1.206,0.496,0.885,0.847,��쓌,8.0,��
2018/01/08,12:00,0.909,1.508,0.951,1.793,1.209,0.497,0.886,0.850,��쓌,8.4,��
2018/01/08,12:10,0.909,1.510,0.949,1.791,1.208,0.498,0.883,0.849,��쓌,8.7,��
2018/01/08,12:20,0.908,1.511,0.948,1.787,1.210,0.496,0.883,0.848,��쓌,7.4,��
2018/01/08,12:30,0.907,1.510,0.950,1.787,1.210,0.498,0.883,0.851,��쓌,8.8,��
2018/01/08,12:40,0.908,1.512,0.948,1.787,1.208,0.496,0.886,0.850,��쓌,9.5,��
2018/01/08,12:50,0.906,1.511,0.949,1.789,1.208,0.497,0.885,0.849,��쓌,9.1,��
2018/01/08,13:00,0.909,1.510,0.951,1.790,1.207,0.498,0.886,0.848,��쓌,9.6,��
2018/01/08,13:10,0.908,1.509,0.950,1.788,1.208,0.496,0.885,0.849,��,11.7,��
2018/01/08,13:20,0.909,1.510,0.950,1.791,1.205,0.497,0.885,0.849,��,10.3,��
2018/01/08,13:30,0.908,1.510,0.950,1.789,1.206,0.499,0.885,0.849,��쓌,11.0,��
2018/01/08,13:40,0.908,1.513,0.951,1.790,1.206,0.499,0.884,0.850,��쓌,8.9,��
2018/01/08,13:50,0.909,1.513,0.951,1.791,1.207,0.499,0.885,0.849,��쓌,11.0,��
2018/01/08,14:00,0.909,1.512,0.950,1.791,1.206,0.499,0.886,0.849,��쓌,11.0,��
2018/01/08,14:10,0.908,1.510,0.951,1.793,1.208,0.499,0.883,0.849,��,8.2,��
2018/01/08,14:20,0.909,1.513,0.949,1.789,1.210,0.498,0.885,0.847,��,8.3,��
2018/01/08,14:30,0.908,1.509,0.952,1.790,1.207,0.498,0.885,0.849,��,7.0,��
2018/01/08,14:40,0.909,1.513,0.952,1.791,1.209,0.500,0.885,0.849,��,4.7,��
2018/01/08,14:50,0.912,1.512,0.950,1.792,1.207,0.499,0.886,0.852,��쓌,4.0,��
2018/01/08,15:00,0.909,1.515,0.949,1.791,1.208,0.500,0.887,0.849,��쓌,6.0,��
2018/01/08,15:10,0.911,1.510,0.949,1.790,1.209,0.498,0.887,0.849,��,5.2,��
2018/01/08,15:20,0.909,1.511,0.950,1.790,1.209,0.501,0.887,0.850,��,5.1,�L
2018/01/08,15:30,0.910,1.509,0.952,1.791,1.207,0.500,0.885,0.849,��쐼,3.8,�L
2018/01/08,15:40,0.910,1.513,0.952,1.794,1.208,0.499,0.885,0.850,��쐼,3.0,�L
2018/01/08,15:50,0.910,1.510,0.950,1.789,1.209,0.499,0.886,0.850,��쐼,4.9,�L
2018/01/08,16:00,0.910,1.514,0.950,1.790,1.210,0.500,0.888,0.850,��쐼,7.1,��
2018/01/08,16:10,0.908,1.512,0.949,1.792,1.212,0.500,0.888,0.851,��쐼,10.4,�L
2018/01/08,16:20,0.913,1.512,0.952,1.792,1.212,0.501,0.887,0.850,��쐼,10.5,�L
2018/01/08,16:30,0.911,1.513,0.951,1.791,1.212,0.501,0.887,0.851,��쐼,11.7,�L
2018/01/08,16:40,0.910,1.512,0.950,1.791,1.211,0.499,0.887,0.850,��쐼,10.2,�L
2018/01/08,16:50,0.910,1.510,0.952,1.792,1.211,0.500,0.888,0.849,��쐼,8.9,�L
2018/01/08,17:00,0.910,1.512,0.951,1.793,1.209,0.500,0.886,0.850,��쐼,7.8,�L
2018/01/08,17:10,0.908,1.511,0.950,1.792,1.208,0.500,0.888,0.849,��쐼,8.3,�L
2018/01/08,17:20,0.911,1.511,0.950,1.789,1.208,0.500,0.883,0.848,��쐼,7.8,�L
2018/01/08,17:30,0.908,1.509,0.952,1.789,1.208,0.499,0.883,0.851,��쐼,9.4,�L
2018/01/08,17:40,0.908,1.506,0.951,1.791,1.211,0.501,0.886,0.849,��쐼,9.8,�L
2018/01/08,17:50,0.910,1.509,0.951,1.791,1.209,0.500,0.888,0.849,��쐼,9.5,�L
2018/01/08,18:00,0.908,1.511,0.953,1.792,1.208,0.499,0.887,0.850,��쐼,6.5,�L
2018/01/08,18:10,0.910,1.510,0.954,1.791,1.208,0.500,0.888,0.850,��쐼,5.6,�L
2018/01/08,18:20,0.908,1.511,0.952,1.792,1.209,0.501,0.887,0.849,��쐼,6.7,�L
2018/01/08,18:30,0.911,1.510,0.951,1.790,1.210,0.499,0.887,0.850,��,7.5,��
2018/01/08,18:40,0.910,1.508,0.951,1.790,1.207,0.500,0.890,0.850,��,7.6,��
2018/01/08,18:50,0.909,1.508,0.953,1.791,1.208,0.501,0.887,0.849,��,7.1,��
2018/01/08,19:00,0.909,1.510,0.951,1.793,1.207,0.499,0.888,0.849,��쐼,3.4,��
2018/01/08,19:10,0.911,1.512,0.951,1.790,1.206,0.500,0.887,0.849,��쓌,2.6,�L
2018/01/08,19:20,0.909,1.508,0.950,1.790,1.207,0.499,0.886,0.848,��쐼,2.2,��
2018/01/08,19:30,0.911,1.510,0.950,1.788,1.208,0.500,0.889,0.847,��,1.5,�L
2018/01/08,19:40,0.910,1.508,0.951,1.790,1.208,0.500,0.888,0.849,�k��,0.9,�L
2018/01/08,19:50,0.910,1.510,0.949,1.793,1.209,0.499,0.889,0.850,�k,2.8,�L
2018/01/08,20:00,0.909,1.510,0.949,1.791,1.208,0.500,0.887,0.849,�k�k��,2.5,�L
2018/01/08,20:10,0.909,1.508,0.952,1.787,1.206,0.499,0.887,0.849,�k�k��,5.0,��
2018/01/08,20:20,0.910,1.507,0.950,1.791,1.207,0.500,0.887,0.849,�k��,4.7,��
2018/01/08,20:30,0.909,1.510,0.948,1.789,1.207,0.498,0.886,0.849,���k��,3.8,��
2018/01/08,20:40,0.908,1.509,0.951,1.788,1.208,0.499,0.885,0.849,�k�k��,4.9,��
2018/01/08,20:50,0.906,1.510,0.949,1.790,1.208,0.498,0.886,0.847,�k�k��,4.4,��
2018/01/08,21:00,0.907,1.508,0.952,1.787,1.206,0.499,0.886,0.847,�k,4.1,��
2018/01/08,21:10,0.908,1.510,0.951,1.787,1.208,0.498,0.886,0.850,�k�k��,5.0,��
2018/01/08,21:20,0.907,1.507,0.949,1.789,1.210,0.498,0.885,0.847,�k,5.0,�L
2018/01/08,21:30,0.909,1.509,0.947,1.788,1.208,0.499,0.886,0.849,�k,5.2,�L
2018/01/08,21:40,0.906,1.505,0.949,1.791,1.206,0.497,0.887,0.849,�k,3.7,�L
2018/01/08,21:50,0.909,1.508,0.950,1.785,1.208,0.499,0.886,0.849,�k,3.1,�L
2018/01/08,22:00,0.908,1.508,0.949,1.790,1.206,0.500,0.888,0.849,�k,4.1,�L
2018/01/08,22:10,0.908,1.504,0.949,1.788,1.204,0.497,0.886,0.848,�k�k��,4.8,�L
2018/01/08,22:20,0.907,1.503,0.950,1.788,1.206,0.499,0.885,0.850,�k�k��,5.1,�L
2018/01/08,22:30,0.906,1.505,0.949,1.787,1.204,0.500,0.887,0.846,�k�k��,5.6,�L
2018/01/08,22:40,0.904,1.499,0.948,1.784,1.199,0.500,0.886,0.847,�k�k��,5.6,�L
2018/01/08,22:50,0.901,1.490,0.943,1.780,1.193,0.497,0.883,0.846,�k,6.4,�L
2018/01/08,23:00,0.899,1.483,0.942,1.770,1.189,0.499,0.882,0.846,�k�k��,6.2,�L
2018/01/08,23:10,0.899,1.480,0.941,1.771,1.190,0.499,0.881,0.844,�k�k��,6.4,�L
2018/01/08,23:20,0.895,1.477,0.937,1.764,1.186,0.499,0.882,0.845,�k�k��,6.0,�L
2018/01/08,23:30,0.894,1.477,0.940,1.762,1.183,0.500,0.882,0.843,�k�k��,6.2,�L
2018/01/08,23:40,0.894,1.469,0.937,1.760,1.183,0.498,0.878,0.841,�k�k��,5.8,�L
2018/01/08,23:50,0.893,1.470,0.935,1.758,1.179,0.498,0.878,0.841,�k�k��,5.4,�L
